Location: Boiro
(42.6475°N, 8.8834°W)
Time: 07:36:54
(UTC+02:00)

NANOSAT C BR1 - Pass Details

Date: 18 August 2022
Orbit: 582 x 600 km, 98.0° (Epoch: 25 September)

Event Time Altitude Azimuth Distance (km) Brightness Sun altitude
Rises 03:44:17 0° 31° (NNE) 2,836 ? -32.3°
Reaches altitude 10° 03:47:12 10° 53° (NE) 1,924 ? -32.1°
Enters shadow 03:48:40 15° 72° (ENE) 1,635 ? -32.0°
